Afton, Prince Edward Island

1:37 PM ADT on October 22, 2017 (GMT -0300)
Afton

Weather History for 71706 - April, 2013

Change the Weather History Date:

Wednesday, April 3, 2013

  Actual Average Record
Temperature  
Mean Temperature 26 °F -  
Max Temperature 30 °F 44 °F - ()
Min Temperature 21 °F 30 °F - ()
Degree Days  
Heating Degree Days 40    
Moisture  
Dew Point 13 °F    
Average Humidity 56    
Maximum Humidity 80    
Minimum Humidity 36    
Precipitation  
Precipitation 0.00 in 0.12 in - ()
Sea Level Pressure  
Sea Level Pressure 29.63 in    
Wind  
Wind Speed 12 mph ()    
Max Wind Speed 20 mph    
Max Gust Speed 32 mph    
Visibility 14.9 miles    
Events Snow    
T = Trace of Precipitation, MM = Missing Value Source: Averaged Metar Reports

Daily Weather History Graph

Daily Weather History Graph

Search for Another Location

Airport or City:

Trip Planner

Search our weather history database for the weather conditions in past years. The results will help you decide how hot, cold, wet, or windy it might be!

Date:

Astronomy

Apr. 03, 2013 Rise Set
Actual Time 6:48 AM ADT 7:44 PM ADT
Civil Twilight 6:17 AM ADT 8:14 PM ADT
Nautical Twilight 5:41 AM ADT 8:51 PM ADT
Astronomical Twilight 5:02 AM ADT 9:29 PM ADT
Moon 2:47 AM ADT (4/3) 12:30 PM ADT (4/3)
Length of Visible Light 13h 57m
Length of Day
12h 56m
Last Quarter, 45% of the Moon is Illuminated
Apr 3
Last Quarter
Apr 10
New
Apr 18
First Quarter
Apr 25
Full
May 2
Last Quarter

Hourly Weather History & Observations

Time (ADT) Temp. Windchill Dew Point Humidity Pressure Visibility Wind Dir Wind Speed Gust Speed Precip Events Conditions
12:00 AM 28.4 °F 19.7 °F 19.4 °F 69% 29.65 in 15.0 mi SW 9.2 mph - N/A   Partly Cloudy
1:00 AM 26.6 °F 17.5 °F 21.2 °F 80% 29.63 in 15.0 mi SSW 9.2 mph - N/A   Partly Cloudy
2:00 AM 28.4 °F 16.6 °F 17.6 °F 64% 29.62 in 15.0 mi SW 16.1 mph 26.5 mph N/A   Mostly Cloudy
3:00 AM 26 °F - 19 °F 65% 29.62 in 15 mi WSW 11.5 mph - -   Overcast
3:00 AM 24.8 °F 15.3 °F 19.4 °F 80% 29.62 in 15.0 mi WSW 9.2 mph 18.4 mph N/A   Overcast
4:00 AM 24.8 °F 14.0 °F 17.6 °F 74% 29.62 in 15.0 mi WSW 11.5 mph 18.4 mph N/A   Overcast
5:00 AM 24.8 °F 12.4 °F 12.2 °F 59% 29.62 in 15.0 mi WSW 15.0 mph 23.0 mph N/A   Overcast
6:00 AM 23.0 °F 11.1 °F 10.4 °F 59% 29.60 in 15.0 mi WSW 12.7 mph 23.0 mph N/A   Mostly Cloudy
8:00 AM 23.0 °F 8.7 °F 6.8 °F 50% 29.62 in 15.0 mi WSW 18.4 mph 29.9 mph N/A   Mostly Cloudy
9:00 AM 22 °F - 6 °F 36% 29.62 in 15 mi WSW 18.4 mph - -   Scattered Clouds
9:00 AM 23.0 °F 8.3 °F 6.8 °F 50% 29.62 in 15.0 mi WSW 19.6 mph 28.8 mph N/A   Mostly Cloudy
10:00 AM 23.0 °F 11.1 °F 10.4 °F 59% 29.63 in 15.0 mi West 12.7 mph 20.7 mph N/A   Mostly Cloudy
11:00 AM 21.2 °F 7.3 °F 5.0 °F 50% 29.64 in 15.0 mi West 16.1 mph 27.6 mph N/A   Mostly Cloudy
12:00 PM 23.0 °F 8.7 °F 8.6 °F 54% 29.63 in 15.0 mi West 18.4 mph 32.2 mph N/A   Mostly Cloudy
1:00 PM 24.8 °F 11.5 °F 10.4 °F 54% 29.61 in 15.0 mi West 17.3 mph 27.6 mph N/A   Mostly Cloudy
1:13 PM 24.8 °F 11.1 °F 12.2 °F 59% 29.61 in 12.0 mi WSW 18.4 mph 27.6 mph N/A Snow Light Snow Showers
2:00 PM 24.8 °F 11.1 °F 12.2 °F 59% 29.61 in 15.0 mi WSW 18.4 mph 29.9 mph N/A Snow Light Snow Showers
3:00 PM 27 °F - 11 °F 37% 29.61 in 15 mi WSW 19.6 mph - - Snow Light Snow Showers
3:00 PM 26.6 °F 13.4 °F 10.4 °F 51% 29.60 in 15.0 mi WSW 18.4 mph 32.2 mph N/A   Mostly Cloudy
4:00 PM 28.4 °F 16.2 °F 10.4 °F 47% 29.60 in 15.0 mi WSW 17.3 mph 27.6 mph N/A   Mostly Cloudy
5:00 PM 28.4 °F 16.2 °F 12.2 °F 51% 29.61 in 15.0 mi West 17.3 mph 25.3 mph N/A   Mostly Cloudy
6:00 PM 30.2 °F 18.1 °F 14.0 °F 51% 29.62 in 15.0 mi West 18.4 mph 27.6 mph N/A   Overcast
7:00 PM 30.2 °F 20.2 °F 14.0 °F 51% 29.63 in 15.0 mi WSW 12.7 mph 19.6 mph N/A   Mostly Cloudy
8:00 PM 30.2 °F 21.3 °F 15.8 °F 55% 29.65 in 15.0 mi West 10.4 mph 19.6 mph N/A   Mostly Cloudy
9:00 PM 31 °F - 16 °F 41% 29.68 in 15 mi West 9.2 mph - -   Mostly Cloudy
9:00 PM 30.2 °F 22.6 °F 15.8 °F 55% 29.68 in 15.0 mi West 8.1 mph - N/A   Mostly Cloudy
10:00 PM 30.2 °F 22.6 °F 17.6 °F 60% 29.70 in 15.0 mi WSW 8.1 mph - N/A   Overcast
11:00 PM 30.2 °F 19.8 °F 15.8 °F 55% 29.71 in 15.0 mi West 13.8 mph 23.0 mph N/A   Overcast